QPF
0.00 0.00 0.00 0.00 0.00 0.00 0.00 0.00 0.00 0.00 0.00 0.00 0.00 0.00 0.00 0.00 0.00 0.00 0.00 0.00 0.00 0.00 0.00 0.00 0.00 0.00 0.00 0.00 0.00 0.00 0.00 0.00 0.00 0.00 0.00 0.00 0.00 0.00 0.00 0.00 0.00 0.00 0.00 0.00
0.00 0.00 0.00 0.00 0.00 0.00 0.00 0.00 0.00 0.00 0.00 0.00 0.00 0.00 0.00 0.00 0.00 0.00 0.00 0.00 0.00 0.00 0.00 0.00 0.00 0.00 0.00 0.00 0.00 0.00 0.00 0.00 0.00 0.00 0.00 0.00 0.00 0.00 0.00 0.00 0.00 0.00 0.00 0.00
0.00 0.00 0.00 0.00 0.00 0.00 0.00 0.00 0.00 0.00 0.00 0.00 0.00 0.00 0.00 0.00 0.00 0.00 0.00 0.00 0.00 0.00 0.00 0.00 0.00 0.00 0.00 0.00 0.00 0.00 0.00 0.00 0.00 0.00 0.00 0.00 0.00 0.00 0.00 0.00 0.00 0.00 0.00 0.00
0.00 0.00 0.00 0.00 0.00 0.00 0.00 0.00 0.00 0.00 0.00 0.00 0.00 0.00 0.00 0.00 0.00 0.00 0.00 0.00 0.00 0.00 0.00 0.00 0.00 0.00 0.00 0.00 0.00 0.00 0.00 0.00 0.00 0.00 0.00 0.00 0.00 0.00 0.00 0.00 0.00 0.00 0.00 0.00
0.00 0.00 0.00 0.00 0.00 0.00 0.00 0.00 0.00 0.00 0.00 0.00 0.00 0.00 0.00 0.00 0.00 0.00 0.00 0.00 0.00 0.00 0.00 0.00 0.00 0.00 0.00 0.00 0.00 0.00 0.00 0.00 0.00 0.00 0.00 0.00 0.00 0.00 0.00 0.00 0.00 0.00 0.00 0.00
0.00 0.00 0.00 0.00 0.00 0.00 0.00 0.00 0.00 0.00 0.00 0.00 0.00 0.00 0.00 0.00 0.00 0.00 0.00 0.00 0.00 0.00 0.00 0.00 0.00 0.00 0.00 0.00 0.00 0.00 0.00 0.00 0.00 0.00 0.00 0.00 0.00 0.00 0.00 0.00 0.00 0.00 0.00 0.00
0.00 0.00 0.00 0.00 0.00 0.00 0.00 0.00 0.00 0.00 0.00 0.00 0.00 0.00 0.00 0.00 0.00 0.00 0.00 0.00 0.00 0.00 0.00 0.00 0.00 0.00 0.00 0.00 0.00 0.00 0.00 0.00 0.00 0.00 0.00 0.00 0.00 0.00 0.00 0.00 0.00 0.00 0.00 0.00
0.00 0.00 0.00 0.00 0.00 0.00 0.00 0.00 0.00 0.00 0.00 0.00 0.00 0.00 0.00 0.00 0.00 0.00 0.00 0.00 0.00 0.00 0.00 0.00 0.00 0.00 0.00 0.00 0.00 0.00 0.00 0.00 0.00 0.00 0.00 0.00 0.00 0.00 0.00 0.00 0.00 0.00 0.00 0.00
0.00 0.00 0.00 0.00 0.00 0.00 0.00 0.00 0.00 0.00 0.00 0.00 0.00 0.00 0.00 0.00 0.00 0.00 0.00 0.00 0.00 0.00 0.00 0.00 0.00 0.00 0.00 0.00 0.00 0.00 0.00 0.00 0.00 0.00 0.00 0.00 0.00 0.00 0.00 0.00 0.00 0.00 0.00 0.00
0.00 0.00 0.00 0.00 0.00 0.00 0.00 0.00 0.00 0.00 0.00 0.00 0.00 0.00 0.00 0.00 0.00 0.00 0.00 0.00 0.00 0.00 0.00 0.00 0.00 0.00 0.00 0.00 0.00 0.00 0.00 0.00 0.00 0.00 0.00 0.00 0.00 0.00 0.00 0.00 0.00 0.00 0.00 0.00
0.00 0.00 0.00 0.00 0.00 0.00 0.00 0.00 0.00 0.00 0.00 0.00 0.00 0.00 0.00 0.00 0.00 0.00 0.00 0.00 0.00 0.00 0.00 0.00 0.00 0.00 0.00 0.00 0.00 0.00 0.00 0.00 0.00 0.00 0.00 0.00 0.00 0.00 0.00 0.00 0.00 0.00 0.00 0.00
0.00 0.00 0.00 0.00 0.00 0.00 0.00 0.00 0.00 0.00 0.00 0.00 0.00 0.00 0.00 0.00 0.00 0.00 0.00 0.00 0.00 0.00 0.00 0.00 0.00 0.00 0.00 0.00 0.00 0.00 0.00 0.00 0.00 0.00 0.00 0.00 0.00 0.00 0.00 0.00 0.00 0.00 0.00 0.00
0.00 0.00 0.00 0.00 0.00 0.00 0.00 0.00 0.00 0.00 0.00 0.00 0.00 0.00 0.00 0.00 0.00 0.00 0.00 0.00 0.00 0.00 0.00 0.00 0.00 0.00 0.00 0.00 0.00 0.00 0.00 0.00 0.00 0.00 0.00 0.00 0.00 0.00 0.00 0.00 0.00 0.00 0.00 0.00
0.00 0.00 0.00 0.00 0.00 0.00 0.00 0.00 0.00 0.00 0.00 0.00 0.00 0.00 0.00 0.00 0.00 0.00 0.00 0.00 0.00 0.00 0.00 0.00 0.00 0.00 0.00 0.00 0.00 0.00 0.00 0.00 0.00 0.00 0.00 0.00 0.00 0.00 0.00 0.00 0.00 0.00 0.00 0.00
0.00 0.00 0.00 0.00 0.00 0.00 0.00 0.00 0.00 0.00 0.00 0.00 0.00 0.00 0.00 0.00 0.00 0.00 0.00 0.00 0.00 0.00 0.00 0.00 0.00 0.00 0.00 0.00 0.00 0.00 0.00 0.00 0.00 0.00 0.00 0.00 0.00 0.00 0.00 0.00 0.00 0.00 0.00 0.00
0.00 0.00 0.00 0.00 0.00 0.00 0.00 0.00 0.00 0.00 0.00 0.00 0.00 0.00 0.00 0.00 0.00 0.00 0.00 0.00 0.00 0.00 0.00 0.00 0.00 0.00 0.00 0.00 0.00 0.00 0.00 0.00 0.00 0.00 0.00 0.00 0.00 0.00 0.00 0.00 0.00 0.00 0.00 0.00
0.00 0.00 0.00 0.00 0.00 0.00 0.00 0.00 0.00 0.00 0.00 0.00 0.00 0.00 0.00 0.00 0.00 0.00 0.00 0.00 0.00 0.00 0.00 0.00 0.00 0.00 0.00 0.00 0.00 0.00 0.00 0.00 0.00 0.00 0.00 0.00 0.00 0.00 0.00 0.00 0.00 0.00 0.00 0.00
0.00 0.00 0.00 0.00 0.00 0.00 0.00 0.00 0.00 0.00 0.00 0.00 0.00 0.00 0.00 0.00 0.00 0.00 0.00 0.00 0.00 0.00 0.00 0.00 0.00 0.00 0.00 0.00 0.00 0.00 0.00 0.00 0.00 0.00 0.00 0.00 0.00 0.00 0.00 0.00 0.00 0.00 0.00 0.00
0.00 0.00 0.00 0.00 0.00 0.00 0.00 0.00 0.00 0.00 0.00 0.00 0.00 0.00 0.00 0.00 0.00 0.00 0.00 0.00 0.00 0.00 0.00 0.00 0.00 0.00 0.00 0.00 0.00 0.00 0.00 0.00 0.00 0.00 0.00 0.00 0.00 0.00 0.00 0.00 0.00 0.00 0.00 0.00
0.00 0.00 0.00 0.00 0.00 0.00 0.00 0.00 0.00 0.00 0.00 0.00 0.00 0.00 0.00 0.00 0.00 0.00 0.00 0.00 0.00 0.00 0.00 0.00 0.00 0.00 0.00 0.00 0.00 0.00 0.00 0.00 0.00 0.00 0.00 0.00 0.00 0.00 0.00 0.00 0.00 0.00 0.00 0.00
0.00 0.00 0.00 0.00 0.00 0.00 0.00 0.00 0.00 0.00 0.00 0.00 0.00 0.00 0.00 0.00 0.00 0.00 0.00 0.00 0.00 0.00 0.00 0.00 0.00 0.00 0.00 0.00 0.00 0.00 0.00 0.00 0.00 0.00 0.00 0.00 0.00 0.00 0.00 0.00 0.00 0.00 0.00 0.00
0.00 0.00 0.00 0.00 0.00 0.00 0.00 0.00 0.00 0.00 0.00 0.00 0.00 0.00 0.00 0.00 0.00 0.00 0.00 0.00 0.00 0.00 0.00 0.00 0.00 0.00 0.00 0.00 0.00 0.00 0.00 0.00 0.00 0.00 0.00 0.00 0.00 0.00 0.00 0.00 0.00 0.00 0.00 0.00
0.00 0.00 0.00 0.00 0.00 0.00 0.00 0.00 0.00 0.00 0.00 0.00 0.00 0.00 0.00 0.00 0.00 0.00 0.00 0.00 0.00 0.00 0.00 0.00 0.00 0.00 0.00 0.00 0.00 0.00 0.00 0.00 0.00 0.00 0.00 0.00 0.00 0.00 0.00 0.00 0.00 0.00 0.00 0.00
0.00 0.00 0.00 0.00 0.00 0.00 0.00 0.00 0.00 0.00 0.00 0.00 0.00 0.00 0.00 0.00 0.00 0.00 0.00 0.00 0.00 0.00 0.00 0.00 0.00 0.00 0.00 0.00 0.00 0.00 0.00 0.00 0.00 0.00 0.00 0.00 0.00 0.00 0.00 0.00 0.00 0.00 0.00 0.00
0.00 0.00 0.00 0.00 0.00 0.00 0.00 0.00 0.00 0.00 0.00 0.00 0.00 0.00 0.00 0.00 0.00 0.00 0.00 0.00 0.00 0.00 0.00 0.00 0.00 0.00 0.00 0.00 0.00 0.00 0.00 0.00 0.00 0.00 0.00 0.00 0.00 0.00 0.00 0.00 0.00 0.00 0.00 0.00
0.00 0.00 0.00 0.00 0.00 0.00 0.00 0.00 0.00 0.00 0.00 0.00 0.00 0.00 0.00 0.00 0.00 0.00 0.00 0.00 0.00 0.00 0.00 0.00 0.00 0.00 0.00 0.00 0.00 0.00 0.00 0.00 0.00 0.00 0.00 0.00 0.00 0.00 0.00 0.00 0.00 0.00 0.00 0.00
MSLP
1015.89 1015.70 1014.79 1014.99 1015.02 1014.21 1014.30 1014.16 1014.32 1014.49 1014.52 1015.01 1014.97 1014.60 1014.17 1013.69 1013.66 1013.91 1014.01 1013.85 1014.04 1014.35 1014.36 1015.12 1015.77 1016.54 1017.07 1017.55 1018.33 1018.73 1019.50 1020.17 1020.71 1021.16 1021.36 1021.60 1021.71 1022.01 1022.38 1022.43 1022.69 1023.04 1023.42 1023.84
1015.94 1014.44 1014.66 1014.81 1014.62 1014.59 1013.88 1013.72 1013.86 1014.21 1014.52 1014.90 1014.77 1014.17 1013.85 1013.36 1013.00 1013.20 1013.48 1013.45 1013.56 1013.62 1013.79 1014.36 1015.08 1016.06 1016.46 1016.91 1017.48 1018.25 1018.80 1019.36 1019.68 1020.25 1020.64 1020.87 1021.13 1021.76 1021.97 1021.98 1022.21 1022.40 1022.81 1023.25
1013.29 1013.36 1014.12 1014.27 1014.40 1014.52 1014.34 1013.55 1013.49 1014.27 1015.19 1015.34 1015.17 1014.24 1013.58 1012.62 1012.34 1012.47 1012.36 1012.38 1012.81 1013.14 1013.39 1013.94 1014.45 1015.41 1015.87 1016.38 1017.00 1017.56 1018.07 1018.48 1018.97 1019.30 1019.91 1020.38 1020.81 1021.18 1021.71 1021.82 1021.95 1021.94 1022.27 1022.74
1013.41 1013.50 1013.23 1013.85 1013.96 1013.85 1014.36 1014.14 1013.99 1014.83 1015.73 1015.89 1015.52 1014.08 1012.10 1011.44 1011.34 1011.43 1011.38 1011.57 1011.78 1012.16 1012.38 1012.78 1013.35 1014.34 1014.87 1015.22 1015.82 1016.44 1017.19 1017.63 1018.38 1018.98 1019.30 1019.52 1019.69 1020.08 1020.38 1020.90 1021.27 1021.49 1021.79 1022.27
1012.35 1012.36 1012.57 1013.03 1013.19 1014.19 1015.00 1014.47 1015.01 1015.71 1016.41 1016.65 1015.99 1015.34 1012.25 1011.02 1010.72 1010.58 1010.77 1011.09 1011.26 1011.58 1011.73 1012.01 1012.35 1012.89 1013.32 1014.44 1014.98 1015.43 1016.12 1016.85 1017.23 1017.95 1018.35 1018.79 1019.20 1019.45 1019.75 1020.16 1020.73 1021.09 1021.33 1021.70
1011.82 1012.33 1012.67 1012.71 1013.88 1014.88 1015.64 1015.75 1016.17 1016.89 1017.55 1017.53 1016.08 1015.43 1012.41 1011.24 1010.28 1010.10 1009.88 1010.16 1010.50 1011.00 1011.32 1011.45 1011.60 1012.25 1012.80 1013.46 1014.16 1014.77 1015.45 1015.77 1016.23 1016.73 1017.36 1017.87 1018.22 1018.79 1019.22 1019.34 1019.85 1020.25 1020.62 1020.72
1011.59 1012.27 1012.33 1012.76 1014.23 1015.61 1015.85 1015.23 1017.31 1018.26 1018.47 1016.98 1015.76 1015.18 1012.55 1010.90 1010.41 1010.32 1010.11 1009.98 1009.99 1010.09 1010.66 1011.14 1011.75 1011.94 1012.43 1013.02 1013.30 1013.95 1014.58 1014.95 1015.25 1015.67 1016.24 1016.70 1017.21 1017.72 1018.16 1018.44 1018.80 1019.22 1019.65 1019.74
1010.46 1012.43 1011.81 1012.52 1012.72 1014.11 1015.66 1014.73 1015.61 1016.97 1017.82 1016.93 1016.19 1014.28 1011.75 1010.60 1009.93 1009.79 1009.84 1009.62 1009.96 1010.29 1010.15 1010.52 1011.19 1011.62 1012.03 1012.65 1013.03 1013.61 1014.08 1014.29 1014.55 1014.89 1015.29 1015.63 1016.26 1016.63 1017.00 1017.34 1017.72 1018.13 1018.36 1018.66
1008.77 1010.95 1011.87 1012.52 1012.33 1013.02 1014.70 1014.78 1014.84 1015.97 1017.49 1017.14 1015.58 1013.58 1011.76 1010.30 1009.95 1009.67 1009.69 1009.69 1009.95 1010.24 1010.41 1010.73 1011.15 1011.70 1012.14 1012.71 1012.87 1013.08 1013.52 1013.89 1014.28 1014.30 1014.66 1015.03 1015.28 1015.66 1015.87 1016.16 1016.51 1016.95 1017.24 1017.66
1006.96 1010.50 1012.07 1012.58 1012.46 1013.00 1012.80 1013.78 1014.82 1015.41 1016.87 1016.79 1014.75 1013.31 1011.42 1010.42 1009.93 1009.53 1009.69 1009.82 1010.00 1010.14 1010.38 1010.78 1011.35 1011.82 1012.17 1012.37 1012.63 1013.16 1013.59 1013.83 1013.92 1014.07 1014.20 1014.21 1014.38 1014.74 1015.12 1015.47 1015.55 1015.81 1016.31 1016.70
1006.36 1009.36 1012.81 1012.86 1012.44 1012.21 1012.96 1013.15 1013.52 1014.17 1015.09 1015.15 1014.60 1012.41 1010.27 1009.81 1009.57 1009.46 1009.56 1009.79 1010.11 1010.57 1010.89 1011.20 1011.69 1012.00 1012.33 1012.44 1012.76 1013.07 1013.27 1013.56 1013.67 1013.89 1013.88 1013.96 1014.24 1014.47 1014.68 1015.03 1015.33 1015.53 1015.88 1016.18
1006.27 1008.85 1011.89 1012.57 1012.43 1012.25 1012.38 1012.55 1012.85 1013.73 1014.79 1014.70 1014.21 1012.13 1010.11 1009.49 1009.38 1009.48 1009.66 1009.98 1010.25 1010.61 1011.02 1011.44 1011.66 1011.92 1012.29 1012.72 1013.07 1013.30 1013.50 1013.62 1013.78 1013.87 1013.97 1014.10 1014.18 1014.33 1014.67 1014.76 1015.09 1015.70 1016.21 1016.60
1005.70 1008.59 1011.30 1013.40 1013.56 1012.72 1012.47 1012.33 1012.39 1013.07 1013.83 1013.94 1013.90 1011.31 1009.67 1009.33 1009.47 1009.48 1009.73 1009.90 1010.31 1010.66 1011.01 1011.32 1011.61 1012.04 1012.52 1012.89 1013.16 1013.28 1013.42 1013.56 1013.72 1013.88 1014.01 1014.22 1014.29 1014.47 1014.63 1014.82 1015.30 1015.60 1016.22 1016.72
1005.26 1007.45 1008.26 1008.83 1009.08 1010.49 1011.89 1012.26 1012.72 1013.25 1013.58 1013.19 1011.98 1010.63 1009.87 1009.49 1009.28 1009.27 1009.38 1009.65 1009.94 1010.29 1010.51 1010.88 1011.27 1011.75 1012.07 1012.50 1012.88 1013.11 1013.21 1013.21 1013.42 1013.43 1013.59 1013.95 1014.33 1014.31 1014.37 1014.80 1015.19 1015.71 1016.08 1016.56
1005.28 1007.13 1008.17 1008.91 1009.23 1009.95 1010.12 1010.65 1011.86 1012.35 1011.29 1011.92 1009.16 1010.12 1009.56 1008.99 1008.79 1008.88 1008.96 1009.23 1009.60 1009.88 1010.24 1010.50 1010.86 1011.34 1011.67 1012.13 1012.43 1012.45 1012.66 1012.96 1013.37 1013.72 1014.18 1014.33 1014.32 1014.49 1014.88 1015.32 1015.71 1016.07 1016.41 1016.75
1005.31 1007.27 1008.36 1009.66 1009.71 1010.10 1010.80 1011.10 1010.90 1010.21 1010.42 1010.83 1009.81 1008.92 1008.64 1008.45 1008.51 1008.43 1008.65 1009.00 1009.50 1009.80 1009.98 1010.18 1010.58 1010.87 1011.48 1011.80 1012.17 1012.42 1012.45 1012.64 1013.12 1013.53 1013.95 1014.30 1014.66 1015.06 1015.34 1015.58 1015.96 1016.43 1016.89 1017.10
1005.71 1007.18 1008.85 1010.79 1010.69 1011.10 1011.63 1009.18 1009.40 1009.45 1009.90 1008.99 1009.60 1006.92 1008.10 1008.33 1008.43 1008.41 1008.60 1008.94 1009.26 1009.62 1009.89 1010.02 1010.37 1010.72 1011.06 1011.62 1012.00 1012.53 1012.50 1012.61 1012.87 1013.26 1013.74 1014.20 1014.57 1015.04 1015.43 1015.66 1016.02 1016.55 1017.02 1017.46
1005.81 1007.10 1008.90 1011.67 1011.75 1011.57 1008.34 1007.78 1008.05 1008.33 1008.32 1008.20 1007.55 1007.60 1007.95 1008.29 1008.36 1008.24 1008.41 1008.83 1009.16 1009.55 1009.76 1010.36 1010.64 1010.81 1010.87 1011.00 1011.56 1012.21 1012.84 1013.51 1013.75 1013.76 1013.85 1013.88 1014.10 1014.45 1015.01 1015.52 1015.86 1016.26 1016.68 1017.02
1006.50 1007.49 1010.05 1011.75 1011.54 1009.82 1007.89 1006.95 1006.56 1007.19 1006.56 1006.81 1006.60 1007.41 1007.81 1008.46 1008.61 1007.97 1008.20 1008.58 1008.93 1009.54 1010.23 1010.81 1011.31 1011.75 1011.92 1011.96 1011.79 1011.84 1012.60 1013.55 1014.45 1015.18 1015.48 1015.07 1014.84 1014.97 1015.08 1014.96 1015.43 1015.91 1016.24 1016.63
1008.06 1008.11 1009.26 1010.96 1011.12 1009.54 1005.93 1005.21 1005.44 1006.89 1006.03 1005.46 1006.26 1006.65 1007.31 1008.39 1008.87 1007.26 1008.28 1008.75 1009.62 1010.22 1010.81 1011.39 1011.83 1012.18 1012.49 1012.82 1012.78 1013.10 1013.59 1013.75 1013.98 1014.35 1015.06 1015.65 1015.47 1015.50 1015.52 1015.28 1014.95 1015.18 1015.73 1016.42
1008.26 1009.03 1009.30 1009.93 1009.72 1007.72 1005.32 1004.58 1004.97 1006.69 1005.19 1004.11 1004.47 1005.22 1006.59 1007.59 1007.70 1008.77 1009.38 1010.28 1011.06 1011.83 1012.31 1012.42 1012.84 1013.48 1013.76 1013.65 1013.44 1013.76 1013.91 1014.15 1014.37 1014.33 1014.12 1014.88 1015.60 1015.91 1015.60 1015.72 1015.53 1015.27 1015.78 1016.27
1005.92 1007.28 1008.20 1008.93 1008.96 1006.79 1004.25 1004.50 1004.01 1004.36 1004.94 1004.92 1004.96 1005.85 1006.63 1007.24 1008.43 1009.53 1010.47 1011.36 1012.19 1012.92 1013.49 1013.59 1014.01 1014.50 1014.58 1014.27 1014.18 1014.51 1014.81 1014.84 1014.75 1014.60 1014.94 1015.11 1015.17 1015.73 1016.15 1016.04 1016.17 1016.03 1015.94 1016.17
1005.16 1004.00 1004.95 1005.72 1004.61 1004.28 1003.75 1003.39 1003.67 1004.05 1005.05 1005.71 1006.00 1006.73 1007.00 1007.76 1009.13 1010.44 1011.52 1012.14 1013.03 1014.15 1014.62 1014.71 1015.10 1015.45 1015.42 1015.28 1015.17 1015.30 1015.53 1015.33 1015.44 1015.41 1015.26 1015.50 1015.50 1015.49 1016.08 1016.36 1016.27 1016.39 1016.11 1016.38
1004.30 1003.96 1004.36 1004.89 1004.22 1004.32 1004.24 1004.36 1004.48 1004.87 1005.38 1005.99 1006.44 1006.98 1007.44 1008.41 1009.54 1010.93 1011.87 1013.02 1014.21 1014.97 1015.29 1015.70 1015.73 1015.93 1016.29 1016.23 1016.30 1016.49 1016.51 1015.91 1015.61 1015.73 1016.01 1015.99 1015.95 1015.85 1016.23 1016.26 1016.14 1016.12 1016.02 1016.12
1003.73 1004.26 1004.43 1004.92 1004.97 1004.71 1004.72 1004.83 1005.07 1005.55 1006.00 1006.91 1007.49 1007.87 1008.05 1009.09 1010.54 1011.53 1012.77 1014.02 1015.08 1015.54 1015.79 1016.26 1016.36 1016.67 1017.23 1017.21 1017.04 1017.16 1016.75 1016.43 1016.46 1016.28 1016.19 1016.52 1016.54 1016.47 1016.60 1016.61 1016.45 1016.08 1015.80 1015.78
1003.92 1003.97 1004.41 1003.67 1003.61 1003.29 1003.83 1004.38 1005.24 1006.03 1007.06 1007.76 1008.40 1009.18 1009.36 1009.89 1011.29 1012.61 1014.15 1014.79 1015.43 1015.81 1016.20 1016.63 1017.22 1017.79 1017.95 1017.91 1017.76 1017.84 1017.54 1017.27 1017.17 1016.60 1016.37 1016.38 1016.62 1016.89 1017.00 1017.00 1016.68 1016.15 1016.06 1016.16
Thickness
5589 5598 5613 5621 5629 5647 5647 5652 5650 5657 5664 5656 5658 5664 5672 5684 5684 5681 5690 5697 5701 5703 5712 5711 5710 5706 5707 5705 5700 5701 5696 5692 5690 5687 5686 5685 5684 5684 5683 5684 5681 5679 5674 5671
5579 5601 5616 5624 5630 5631 5646 5648 5653 5655 5657 5657 5657 5664 5674 5682 5686 5685 5686 5693 5699 5704 5709 5711 5711 5704 5707 5706 5704 5699 5698 5695 5695 5691 5688 5688 5686 5683 5681 5684 5683 5679 5675 5671
5603 5614 5615 5617 5622 5625 5633 5644 5652 5646 5643 5649 5646 5651 5662 5683 5688 5688 5695 5703 5703 5703 5706 5708 5710 5704 5705 5705 5702 5699 5697 5696 5695 5694 5690 5687 5684 5683 5679 5680 5678 5679 5677 5673
5591 5601 5613 5612 5618 5626 5620 5634 5643 5634 5631 5631 5642 5634 5678 5687 5689 5694 5699 5702 5705 5704 5708 5711 5713 5707 5708 5710 5707 5704 5698 5698 5693 5690 5689 5689 5688 5686 5685 5680 5678 5676 5673 5669
5589 5599 5608 5611 5625 5624 5615 5629 5625 5622 5617 5619 5629 5619 5665 5692 5687 5694 5699 5701 5705 5705 5707 5709 5711 5712 5714 5707 5707 5706 5701 5697 5697 5692 5690 5688 5686 5685 5684 5681 5674 5671 5669 5665
5589 5601 5604 5615 5605 5604 5606 5608 5608 5603 5604 5593 5623 5622 5652 5673 5691 5700 5704 5706 5708 5706 5706 5711 5713 5713 5709 5707 5706 5704 5700 5700 5698 5696 5691 5686 5686 5681 5677 5678 5673 5671 5667 5666
5578 5583 5594 5603 5592 5588 5591 5610 5579 5579 5578 5599 5626 5614 5652 5682 5689 5695 5697 5702 5706 5709 5706 5706 5705 5707 5709 5705 5706 5702 5698 5697 5697 5695 5692 5690 5685 5682 5678 5676 5674 5671 5666 5666
5562 5553 5586 5599 5601 5592 5584 5605 5589 5584 5580 5602 5602 5609 5641 5686 5692 5695 5694 5701 5704 5700 5706 5706 5705 5704 5704 5702 5702 5699 5696 5695 5693 5692 5689 5690 5684 5682 5680 5677 5674 5670 5669 5665
5582 5572 5585 5590 5597 5600 5579 5586 5607 5583 5547 5576 5601 5629 5653 5672 5678 5685 5688 5697 5697 5699 5700 5703 5701 5697 5697 5695 5695 5696 5693 5689 5686 5687 5684 5683 5683 5680 5678 5678 5675 5671 5670 5666
5596 5561 5572 5576 5587 5589 5600 5602 5586 5586 5563 5569 5605 5618 5632 5658 5669 5680 5681 5681 5686 5691 5693 5693 5691 5689 5690 5690 5690 5687 5685 5682 5682 5679 5679 5680 5679 5677 5675 5672 5673 5671 5667 5663
5595 5571 5546 5559 5570 5582 5584 5586 5595 5599 5592 5575 5582 5616 5657 5659 5663 5676 5674 5679 5678 5676 5676 5678 5678 5679 5679 5680 5679 5678 5677 5674 5674 5672 5672 5672 5669 5667 5666 5663 5661 5660 5656 5654
5582 5562 5537 5551 5570 5582 5585 5589 5595 5586 5579 5590 5586 5604 5654 5657 5657 5658 5660 5665 5666 5667 5667 5666 5668 5669 5668 5667 5665 5664 5664 5664 5664 5663 5662 5660 5658 5657 5652 5653 5651 5645 5640 5637
5576 5552 5529 5525 5540 5561 5568 5585 5595 5591 5579 5574 5573 5611 5645 5644 5646 5650 5646 5655 5652 5657 5656 5656 5659 5659 5657 5656 5655 5655 5655 5655 5654 5651 5650 5646 5644 5643 5642 5640 5636 5633 5626 5622
5578 5564 5563 5570 5583 5575 5562 5567 5572 5572 5559 5571 5590 5623 5634 5635 5638 5639 5642 5643 5644 5645 5649 5650 5651 5652 5652 5651 5648 5646 5646 5647 5646 5646 5643 5637 5632 5631 5631 5628 5624 5618 5614 5610
5574 5553 5570 5576 5581 5578 5580 5578 5571 5569 5598 5582 5634 5609 5621 5627 5630 5629 5634 5640 5638 5639 5642 5643 5644 5646 5643 5641 5641 5642 5642 5638 5635 5630 5625 5623 5622 5618 5614 5609 5604 5601 5598 5595
5572 5539 5560 5542 5568 5568 5560 5563 5571 5588 5592 5591 5608 5614 5631 5628 5629 5633 5634 5633 5627 5630 5633 5635 5639 5638 5636 5636 5632 5631 5631 5629 5624 5619 5615 5612 5606 5601 5597 5592 5587 5582 5578 5577
5559 5543 5538 5522 5541 5542 5523 5570 5576 5584 5582 5601 5584 5636 5627 5619 5620 5622 5625 5621 5620 5622 5624 5627 5628 5628 5626 5624 5622 5618 5618 5618 5614 5608 5601 5597 5593 5588 5583 5579 5575 5570 5565 5560
5541 5536 5530 5502 5519 5513 5569 5585 5587 5585 5589 5596 5610 5615 5612 5606 5609 5616 5618 5617 5616 5617 5618 5617 5614 5616 5618 5618 5614 5608 5603 5596 5592 5592 5590 5587 5585 5582 5577 5571 5567 5562 5558 5554
5535 5526 5504 5503 5496 5541 5570 5585 5591 5581 5597 5604 5609 5608 5604 5596 5599 5606 5613 5614 5613 5613 5607 5601 5597 5595 5594 5595 5598 5597 5590 5581 5572 5565 5563 5566 5568 5565 5564 5563 5559 5553 5550 5546
5515 5530 5520 5506 5492 5511 5591 5594 5594 5582 5582 5607 5601 5604 5597 5583 5574 5619 5605 5605 5595 5590 5586 5583 5582 5580 5578 5574 5575 5573 5569 5567 5565 5560 5552 5545 5547 5547 5546 5548 5550 5546 5540 5533
5499 5507 5514 5491 5486 5532 5582 5583 5588 5553 5590 5603 5606 5608 5591 5582 5598 5587 5578 5572 5570 5566 5562 5564 5562 5558 5554 5553 5557 5556 5554 5553 5550 5548 5546 5537 5529 5528 5530 5529 5529 5530 5526 5520
5521 5511 5511 5480 5483 5538 5573 5577 5586 5595 5586 5590 5592 5587 5584 5583 5571 5566 5562 5556 5552 5547 5542 5543 5540 5534 5533 5536 5539 5538 5533 5532 5529 5529 5526 5524 5520 5513 5511 5512 5510 5510 5510 5508
5507 5542 5534 5544 5558 5565 5572 5581 5583 5582 5574 5572 5570 5568 5573 5564 5557 5549 5543 5540 5533 5523 5520 5522 5518 5514 5514 5514 5516 5516 5513 5513 5511 5510 5507 5506 5506 5505 5499 5496 5497 5494 5495 5492
5523 5535 5518 5536 5552 5550 5554 5559 5558 5565 5563 5559 5559 5557 5559 5555 5545 5534 5528 5519 5511 5503 5501 5500 5501 5500 5497 5497 5496 5494 5494 5498 5502 5500 5493 5490 5490 5489 5484 5482 5482 5483 5481 5479
5508 5519 5508 5509 5522 5537 5543 5545 5544 5543 5541 5535 5534 5541 5544 5531 5521 5516 5507 5497 5491 5489 5488 5485 5486 5483 5479 5476 5478 5476 5479 5481 5481 5482 5481 5476 5474 5472 5469 5467 5465 5466 5467 5467
5506 5515 5526 5530 5531 5547 5545 5536 5528 5526 5522 5517 5516 5514 5516 5514 5505 5496 5482 5479 5476 5476 5474 5472 5467 5462 5459 5461 5462 5460 5462 5463 5462 5466 5464 5463 5459 5454 5451 5448 5449 5453 5452 5450